Location: Newark
(13.6797°N, 8.5297°E)
Time: 16:08:32
(UTC+00:00)

Altair - Pass Details

Date: 26 January 2020
Orbit: 1502 x 1682 km, 47.2° (Epoch: 22 February)

Event Time Altitude Azimuth Distance (km) Brightness Sun altitude
Rises 07:15:18 0° 254° (WSW) 4,812 9.7 17.5°
Reaches altitude 10° 07:19:00 10° 265° (W) 3,853 9.2 18.4°
Maximum altitude 07:27:07 28° 321° (NW) 2,718 8.5 20.1°
Drops below altitude 10° 07:35:27 10° 17° (NNE) 3,933 9.6 21.9°
Sets 07:39:20 0° 29° (NNE) 4,928 10.2 22.8°
